This demonstration page uses our WeatherBlox Daily Observations layout. Learn more.

Left ArrowRight Arrow

Hourly Observations for November 30, 2022

Temp ( °F °C ) Dew Point ( °F °C ) Humidity (%) Winds ( mph kmh ) Pressure ( in mb ) Visibility ( mi km ) Precip ( " mm )
12:05 am 00:05 Cloudy with Rain 59 15 59 15 100 100 NW 13 20 30.02 1017 5 8 0.04 1.02
12:08 am 00:08 Cloudy with Nearby Thunderstorms 59 15 59 15 100 100 NW 18 30 30.02 1017 4 6 0.07 1.78
12:20 am 00:20 Cloudy with Nearby Thunderstorms 59 15 59 15 100 100 N 10 17 30.04 1017 2 3 0.24 6.10
12:22 am 00:22 Cloudy with Nearby Thunderstorms 59 15 59 15 100 100 NE 10 17 30.04 1017 2 3 0.31 7.87
12:27 am 00:27 Cloudy with Heavy Rain 59 15 59 15 100 100 VRB 3 6 30.04 1017 2 3 0.33 8.38
12:32 am 00:32 Cloudy with Light Rain 59 15 59 15 100 100 ENE 9 15 30.00 1016 3 5 0.34 8.64
12:40 am 00:40 Cloudy with Light Rain 59 15 59 15 100 100 Calm 30.02 1017 9 14 0.34 8.64
12:53 am 00:53 Cloudy with Light Rain 59 15 59 15 100 100 ENE 13 20 29.99 1016 6 10 0.38 9.65
1:53 am 01:53 Cloudy with Rain 57 13.9 N/A N/A Calm 29.98 1015 3 4 0.32 8.13
1:57 am 01:57 Cloudy with Light Rain 57 13.9 N/A N/A undefined N/A 30.00 1016 4 6 0.01 0.13
2:53 am 02:53 Cloudy with Light Rain 57 13.9 N/A N/A E 8 13 29.91 1013 8 13 0.04 1.02
3:24 am 03:24 Cloudy with Nearby Thunderstorms 57 13.9 N/A N/A ENE 5 7 29.89 1012 2 3 0.20 5.08
3:30 am 03:30 Cloudy with Nearby Thunderstorms 57 13.9 N/A N/A Calm 29.89 1012 3 5 0.23 5.84
3:41 am 03:41 Cloudy with Strong Thunderstorms 57 13.9 N/A N/A ENE 8 13 29.87 1011 3 4 0.33 8.38
3:53 am 03:53 Cloudy with Thunderstorms 57 13.9 N/A N/A ESE 6 9 29.83 1010 3 4 0.42 10.67
4:04 am 04:04 Cloudy with Thunderstorms 58 14.4 N/A N/A undefined N/A 29.88 1012 6 10 0.05 1.27
4:15 am 04:15 Cloudy with Strong Thunderstorms 59 15 N/A N/A S 12 19 29.89 1012 1 2 0.40 10.16
4:25 am 04:25 Cloudy with Nearby Thunderstorms 60 15.6 N/A N/A SSW 8 13 29.89 1012 5 8 0.42 10.67
4:34 am 04:34 Cloudy with Nearby Thunderstorms 61 16.1 N/A N/A SW 6 9 29.90 1013 5 8 0.46 11.68
4:53 am 04:53 Cloudy with Nearby Thunderstorms 60 15.6 N/A N/A W 7 11 29.91 1013 6 10 0.52 13.21
5:00 am 05:00 Cloudy with Thunderstorms 60 15.6 N/A N/A W 9 15 29.94 1014 5 8 0.03 0.76
5:18 am 05:18 Cloudy with Nearby Thunderstorms 59 15 N/A N/A NW 8 13 29.94 1014 5 8 0.10 2.54
5:25 am 05:25 Cloudy with Rain 59 15 N/A N/A W 6 9 29.94 1014 5 8 0.14 3.56
5:31 am 05:31 Cloudy with Nearby Thunderstorms 59 15 N/A N/A Calm 29.94 1014 4 6 0.17 4.32
5:42 am 05:42 Cloudy with Nearby Thunderstorms 59 15 N/A N/A NE 7 11 29.94 1014 5 8 0.20 5.08
5:53 am 05:53 Cloudy with Nearby Thunderstorms 58 14.4 N/A N/A ENE 9 15 29.93 1014 5 8 0.25 6.35
6:23 am 06:23 Cloudy with Heavy Rain 57 13.9 57 13.9 100 100 WSW 6 9 29.97 1015 4 6 0.16 4.06
6:35 am 06:35 Cloudy with Nearby Thunderstorms 57 13.9 57 13.9 100 100 Calm 29.94 1014 5 8 0.21 5.33
6:53 am 06:53 Cloudy with Light Rain 58 14.4 58 14.4 100 100 WSW 3 6 29.94 1014 10 16 0.22 5.59
7:53 am 07:53 Cloudy 57 13.9 57 13.9 100 100 Calm 29.97 1015 10 16 0.01 0.13
9:00 am 09:00 Cloudy with Rain 60 15.6 59 15 96 96 SW 6 9 30.01 1016 10 16 0.01 0.13
9:53 am 09:53 Cloudy 60 15.6 60 15.6 100 100 SW 6 9 30.03 1017 10 16 0.01 0.13
10:21 am 10:21 Cloudy 61 16.1 61 16.1 100 100 SW 7 11 30.04 1017 10 16 0.00 0.00
10:40 am 10:40 Mostly Cloudy 63 17.2 63 17.2 100 100 VRB 6 9 30.04 1017 10 16 0.00 0.00
10:53 am 10:53 Mostly Cloudy 64 17.8 64 17.8 100 100 VRB 6 9 30.04 1017 10 16 0.00 0.00
11:53 am 11:53 Cloudy 68 20 59 15 73 73 WSW 10 17 30.03 1017 10 16 0.00 0.00
12:00 pm 12:00 Mostly Cloudy 68 20 59 15 73 73 W 12 19 30.03 1017 10 16 0.00 0.00
12:20 pm 12:20 Mostly Cloudy 68 20 55 12.8 63 63 NW 15 24 30.04 1017 10 16 0.00 0.00
12:53 pm 12:53 Mostly Cloudy 66 18.9 48 8.9 52 52 NW 16 26 30.05 1018 10 16 0.00 0.00
1:00 pm 13:00 Sunny 66 18.9 50 10 56 56 WNW 18 30 30.05 1018 10 16 0.00 0.00
1:53 pm 13:53 Mostly Sunny 62 16.7 49 9.4 62 62 NW 17 28 30.08 1019 10 16 0.00 0.00
2:53 pm 14:53 Mostly Sunny 62 16.7 43 6.1 50 50 NNW 9 15 30.11 1020 10 16 0.00 0.00
3:53 pm 15:53 Sunny 58 14.4 35 1.7 42 42 NW 15 24 30.14 1021 10 16 0.00 0.00
4:53 pm 16:53 Sunny 55 12.8 31 -0.6 40 40 NNW 13 20 30.17 1022 10 16 0.00 0.00
5:53 pm 17:53 Clear 52 11.1 30 -1.1 43 43 NNW 12 19 30.21 1023 10 16 0.00 0.00
6:53 pm 18:53 Clear 50 10 24 -4.4 36 36 NW 7 11 30.25 1024 10 16 0.00 0.00
7:53 pm 19:53 Clear 47 8.3 25 -3.9 42 42 NNW 7 11 30.28 1025 10 16 0.00 0.00
8:53 pm 20:53 Clear 45 7.2 21 -6.1 38 38 NW 5 7 30.30 1026 10 16 0.00 0.00
9:53 pm 21:53 Clear 44 6.7 23 -5 43 43 NNW 7 11 30.32 1027 10 16 0.00 0.00
10:53 pm 22:53 Clear 42 5.6 24 -4.4 48 48 NNW 9 15 30.33 1027 10 16 0.00 0.00
11:53 pm 23:53 Clear 41 5 24 -4.4 51 51 NNW 8 13 30.34 1027 10 16 0.00 0.00

Powered by AerisWeather